Regional Weather Roundup
Issued by NWS Mt. Holly, NJ

Home | Current Version | Previous Version | Text Only | Print | Product List | Glossary On
Versions: 1 2 3 4 5 6 7 8 9 10 11 12 13 14 15 16 17 18 19 20 21 22 23 24 25 26 27 28 29 30 31 32 33 34 35 36 37 38 39 40 41 42 43 44 45 46 47 48 49 50
000
ASUS41 KPHI 251012
RWRPHI

REGIONAL WEATHER ROUNDUP
NATIONAL WEATHER SERVICE MOUNT HOLLY NJ
600 AM EDT MON JUL 25 2016

NOTE:  "FAIR" INDICATES FEW OR NO CLOUDS BELOW 12,000 FEET WITH NO
SIGNIFICANT WEATHER AND/OR OBSTRUCTIONS TO VISIBILITY.

 * = STATION DOES NOT REPORT PRECIPITATION (E.G. RAIN, SNOW, ETC.)
        OR FOG.

NJZ015>026-251100-
SOUTHERN NEW JERSEY

CITY           SKY/WX    TMP DP  RH WIND       PRES   REMARKS
POMONA         CLOUDY    79  76  90 S8        29.95S FOG
WILDWOOD*      CLOUDY    78  76  93 S9        29.96R FOG
MILLVILLE      CLOUDY    78  76  93 CALM      29.95R FOG
WRIGHTSTOWN    TSTM      73  72  94 W13       29.97F FOG
MOUNT HOLLY    HVY RAIN  71  70  96 CALM      29.98F VSB 1
TRENTON        RAIN      74  71  91 SW8       29.97R

$$
NJZ001>014-251100-
NORTHERN NEW JERSEY

CITY           SKY/WX    TMP DP  RH WIND       PRES   REMARKS
SUSSEX         CLOUDY    70  68  93 CALM      29.95S
ANDOVER*         N/A     72  67  84 S3        29.96R
MORRISTOWN     MOCLDY    75  63  64 CALM      29.94S
NEWARK         CLOUDY    79  67  66 S6        29.94R
TETERBORO      LGT RAIN  79  67  66 S8        29.93R
CALDWELL       CLOUDY    79  66  64 SW5       29.94R
SOMERVILLE     CLOUDY    73  70  90 CALM      29.94R
ALLAIRE*       CLOUDY    77  72  84 W8        29.98R
TOMS RIVER*    TSTM      77  75  94 NW18      29.98R

$$
PAZ043-044-047-054-055-060>062-066>071-251100-
EASTERN PENNSYLVANIA

CITY           SKY/WX    TMP DP  RH WIND       PRES   REMARKS
PHILADELPHIA   CLOUDY    75  73  93 N7        29.96F
NORTH PHILA    RAIN      74  72  93 SW6       29.98F FOG
BLUE BELL*     CLOUDY    72  72 100 CALM      29.96F
DOYLESTOWN     LGT RAIN  71  70  96 S6        29.96F
QUAKERTOWN*    MOCLDY    73  72  94 CALM      29.99R
PERKASIE*      CLOUDY    72  72 100 CALM      29.99R
POTTSTOWN      MOCLDY    73  72  96 CALM      29.98S
LANCASTER      PTCLDY    72  71  97 NE3       29.97R
COATESVILLE    CLOUDY    73  73 100 CALM      29.99S
READING        CLOUDY    75  70  84 SW3       29.96R
ALLENTOWN      CLOUDY    75  68  78 SW3       29.95S
MOUNT POCONO   CLEAR     68  65  90 W7        30.02R
HAZLETON       CLOUDY    70  68  94 CALM      30.04S
LEHIGHTON      FAIR      68  68 100 CALM      29.98R
WILKES BARRE   PTCLDY    73  69  87 SW6       29.97S

$$
DEZALL-MDZ008-012-015-019-020-251100-
DELAWARE AND EASTERN MARYLAND

CITY           SKY/WX    TMP DP  RH WIND       PRES   REMARKS
WILMINGTON     CLOUDY    77  73  87 CALM      29.96S
DOVER          MOCLDY    79  79 100 S2        29.94S
GEORGETOWN     CLOUDY    78  76  93 SW5       29.96R FOG
EASTON         CLOUDY    76  76 100 CALM      29.98S
ABERDEEN       CLOUDY    77  73  88 CALM      29.94
PATUXENT       PTCLDY    82  74  76 SW10      29.95F
OCEAN CITY     CLOUDY    79  77  94 CALM      29.96S
WALLOPS ISLAND FAIR      82  78  88 W3        29.98R HX  91
CAMBRIDGE      CLOUDY    77  73  88 S3        29.95S
SALISBURY      PTCLDY    77  75  93 SW5       29.97R

$$
PAZ001-021-NYZ056-072-MDZ011-DCZ001-251100-
OTHER NEARBY LOCATIONS

CITY           SKY/WX    TMP DP  RH WIND       PRES   REMARKS
HARRISBURG     CLOUDY    76  75  97 CALM      29.96R
STATE COLLEGE  CLEAR     68  68 100 CALM      30.00S
WILLIAMSPORT   CLEAR     73  69  87 W5        29.96S
BINGHAMTON     CLEAR     66  61  84 S3        29.97S
NEW YORK CITY  LGT RAIN  80  64  58 VRB5      29.97R
BALTIMORE      CLOUDY    78  73  84 SW5       29.95R
WASHINGTON DC  MOCLDY    82  77  84 S5        29.95S HX  90

$$



USA.gov is the U.S. government's official web portal to all federal, state and local government web resources and services.